Yankton, SD

8:48 AM CST on February 19, 2017 (GMT -0600)
Gurney Municipal

Weather History for KYKN - October, 2011

Change the Weather History Date:

Sunday, October 16, 2011

  Actual Average Record
Temperature  
Mean Temperature 47 °F -  
Max Temperature 57 °F 61 °F 93 °F (1958)
Min Temperature 37 °F 35 °F 19 °F (1976)
Degree Days  
Heating Degree Days 18    
Moisture  
Dew Point 33 °F    
Average Humidity 56    
Maximum Humidity 87    
Minimum Humidity 29    
Precipitation  
Precipitation 0.00 in - - ()
Sea Level Pressure  
Sea Level Pressure 30.02 in    
Wind  
Wind Speed 12 mph (WNW)    
Max Wind Speed 22 mph    
Max Gust Speed 26 mph    
Visibility 10 miles    
Events      
Averages and records for this station are not official NWS values.
T = Trace of Precipitation, MM = Missing Value Source: NWS Daily Summary

Daily Weather History Graph

Daily Weather History Graph

Search for Another Location

Airport or City:

Trip Planner

Search our weather history database for the weather conditions in past years. The results will help you decide how hot, cold, wet, or windy it might be!

Date:

Astronomy

Oct. 16, 2011 Rise Set
Actual Time 7:43 AM CDT 6:45 PM CDT
Civil Twilight 7:15 AM CDT 7:14 PM CDT
Nautical Twilight 6:42 AM CDT 7:47 PM CDT
Astronomical Twilight 6:09 AM CDT 8:19 PM CDT
Moon 9:26 PM CDT (10/16) 12:08 PM CDT (10/16)
Length of Visible Light 11h 58m
Length of Day
11h 01m
Waning Gibbous, 82% of the Moon is Illuminated
Oct 16
Waning Gibbous
Oct 19
Last Quarter
Oct 26
New
Nov 2
First Quarter
Nov 10
Full

Hourly Weather History & Observations

Time (CDT) Temp. Windchill Dew Point Humidity Pressure Visibility Wind Dir Wind Speed Gust Speed Precip Events Conditions
12:15 AM 55.4 °F - 32.0 °F 41% 29.84 in 10.0 mi NNE 12.7 mph 20.7 mph N/A   Mostly Cloudy
12:35 AM 55.4 °F - 33.8 °F 44% 29.85 in 10.0 mi NNE 13.8 mph 19.6 mph N/A   Scattered Clouds
12:55 AM 53.6 °F - 35.6 °F 51% 29.85 in 10.0 mi North 15.0 mph 21.9 mph N/A   Overcast
1:15 AM 50.0 °F - 37.4 °F 62% 29.85 in 10.0 mi North 13.8 mph 21.9 mph N/A   Mostly Cloudy
1:35 AM 48.2 °F - 39.2 °F 71% 29.86 in 10.0 mi NNE 12.7 mph 19.6 mph N/A   Partly Cloudy
1:55 AM 48.2 °F - 39.2 °F 71% 29.88 in 10.0 mi North 5.8 mph - N/A   Clear
3:15 AM 44.6 °F 39.2 °F 37.4 °F 76% 29.93 in 10.0 mi NNW 10.4 mph - N/A   Clear
3:55 AM 44.6 °F 40.7 °F 37.4 °F 76% 29.95 in 10.0 mi NNW 6.9 mph - N/A   Clear
4:15 AM 42.8 °F 39.3 °F 37.4 °F 81% 29.96 in 10.0 mi WNW 5.8 mph - N/A   Clear
4:56 AM 42.8 °F 38.0 °F 37.4 °F 81% 29.98 in 10.0 mi WNW 8.1 mph - N/A   Clear
5:15 AM 42.8 °F 38.0 °F 37.4 °F 81% 29.99 in 10.0 mi West 8.1 mph - N/A   Clear
5:35 AM 42.8 °F 36.2 °F 37.4 °F 81% 30.00 in 10.0 mi WNW 12.7 mph - N/A   Clear
5:55 AM 42.8 °F 37.0 °F 37.4 °F 81% 30.00 in 10.0 mi NW 10.4 mph - N/A   Clear
6:35 AM 41.0 °F 35.8 °F 37.4 °F 87% 30.00 in 10.0 mi WNW 8.1 mph - N/A   Clear
7:16 AM 41.0 °F 36.4 °F 35.6 °F 81% 30.02 in 10.0 mi West 6.9 mph - N/A   Clear
7:35 AM 41.0 °F 34.7 °F 35.6 °F 81% 30.03 in 10.0 mi WNW 10.4 mph - N/A   Scattered Clouds
7:55 AM 41.0 °F 35.2 °F 35.6 °F 81% 30.03 in 10.0 mi WNW 9.2 mph - N/A   Partly Cloudy
8:15 AM 42.8 °F 37.0 °F 37.4 °F 81% 30.04 in 10.0 mi WNW 10.4 mph - N/A   Partly Cloudy
8:35 AM 44.6 °F 38.8 °F 37.4 °F 76% 30.04 in 10.0 mi WNW 11.5 mph - N/A   Scattered Clouds
8:55 AM 44.6 °F 38.8 °F 37.4 °F 76% 30.05 in 10.0 mi WNW 11.5 mph - N/A   Scattered Clouds
9:36 AM 46.4 °F 40.4 °F 39.2 °F 76% 30.06 in 10.0 mi WNW 13.8 mph - N/A   Clear
9:55 AM 48.2 °F - 39.2 °F 71% 30.07 in 10.0 mi WNW 13.8 mph - N/A   Clear
10:15 AM 48.2 °F - 39.2 °F 71% 30.07 in 10.0 mi WNW 16.1 mph - N/A   Clear
10:35 AM 50.0 °F - 39.2 °F 66% 30.08 in 10.0 mi NW 12.7 mph - N/A   Clear
10:55 AM 51.8 °F - 39.2 °F 62% 30.08 in 10.0 mi NW 16.1 mph - N/A   Clear
11:15 AM 51.8 °F - 39.2 °F 62% 30.08 in 10.0 mi NW 16.1 mph - N/A   Clear
11:56 AM 53.6 °F - 39.2 °F 58% 30.09 in 10.0 mi NW 16.1 mph - N/A   Partly Cloudy
12:35 PM 55.4 °F - 39.2 °F 54% 30.09 in 10.0 mi NNW 17.3 mph - N/A   Partly Cloudy
12:55 PM 55.4 °F - 37.4 °F 51% 30.08 in 10.0 mi NW 12.7 mph 20.7 mph N/A   Clear
1:15 PM 55.4 °F - 35.6 °F 47% 30.07 in 10.0 mi WNW 16.1 mph 24.2 mph N/A   Clear
1:35 PM 57.2 °F - 33.8 °F 41% 30.07 in 10.0 mi NW 17.3 mph 25.3 mph N/A   Partly Cloudy
2:16 PM 57.2 °F - 30.2 °F 36% 30.05 in 10.0 mi WNW 20.7 mph 26.5 mph N/A   Clear
2:35 PM 57.2 °F - 30.2 °F 36% 30.05 in 10.0 mi WNW 21.9 mph - N/A   Clear
2:55 PM 57.2 °F - 28.4 °F 33% 30.04 in 10.0 mi NW 21.9 mph 26.5 mph N/A   Clear
3:15 PM 57.2 °F - 30.2 °F 36% 30.04 in 10.0 mi WNW 17.3 mph 20.7 mph N/A   Clear
3:35 PM 57.2 °F - 28.4 °F 33% 30.04 in 10.0 mi NW 19.6 mph - N/A   Clear
3:55 PM 57.2 °F - 28.4 °F 33% 30.04 in 10.0 mi WNW 17.3 mph 23.0 mph N/A   Clear
4:36 PM 57.2 °F - 24.8 °F 29% 30.03 in 10.0 mi WNW 20.7 mph 25.3 mph N/A   Clear
4:55 PM 57.2 °F - 26.6 °F 31% 30.03 in 10.0 mi WNW 15.0 mph - N/A   Clear
5:15 PM 57.2 °F - 24.8 °F 29% 30.03 in 10.0 mi WNW 15.0 mph - N/A   Clear
5:35 PM 57.2 °F - 26.6 °F 31% 30.03 in 10.0 mi WNW 15.0 mph - N/A   Clear
5:55 PM 55.4 °F - 24.8 °F 31% 30.03 in 10.0 mi WNW 15.0 mph - N/A   Clear
6:15 PM 53.6 °F - 26.6 °F 35% 30.03 in 10.0 mi WNW 11.5 mph - N/A   Clear
6:56 PM 50.0 °F - 26.6 °F 40% 30.03 in 10.0 mi West 8.1 mph - N/A   Clear
7:15 PM 50.0 °F - 26.6 °F 40% 30.03 in 10.0 mi West 8.1 mph - N/A   Clear
7:35 PM 48.2 °F - 26.6 °F 43% 30.03 in 10.0 mi WSW 8.1 mph - N/A   Clear
7:55 PM 48.2 °F - 26.6 °F 43% 30.03 in 10.0 mi West 9.2 mph - N/A   Clear
8:15 PM 46.4 °F 41.5 °F 26.6 °F 46% 30.03 in 10.0 mi West 10.4 mph - N/A   Clear
8:35 PM 48.2 °F - 26.6 °F 43% 30.04 in 10.0 mi West 11.5 mph - N/A   Clear
9:16 PM 46.4 °F 41.5 °F 26.6 °F 46% 30.03 in 10.0 mi West 10.4 mph - N/A   Clear
9:35 PM 46.4 °F 41.1 °F 26.6 °F 46% 30.04 in 10.0 mi West 11.5 mph - N/A   Clear
9:55 PM 46.4 °F 40.7 °F 26.6 °F 46% 30.04 in 10.0 mi WNW 12.7 mph - N/A   Clear
10:15 PM 42.8 °F 37.0 °F 26.6 °F 53% 30.04 in 10.0 mi WNW 10.4 mph - N/A   Clear
10:35 PM 42.8 °F 37.5 °F 26.6 °F 53% 30.04 in 10.0 mi WNW 9.2 mph - N/A   Clear
10:55 PM 39.2 °F 33.0 °F 26.6 °F 61% 30.04 in 10.0 mi WNW 9.2 mph - N/A   Clear
11:36 PM 37.4 °F 32.1 °F 26.6 °F 65% 30.03 in 10.0 mi NW 6.9 mph - N/A   Clear
11:55 PM 39.2 °F 35.9 °F 26.6 °F 61% 30.03 in 10.0 mi SSW 4.6 mph - N/A   Clear